Weather History for Gainesville, FL

Change the Weather History Date:

Wednesday, March 30, 2005

  Actual Average Record
Temperature  
Mean Temperature 68 °F 64 °F  
Max Temperature 84 °F 77 °F 94 °F (1907)
Min Temperature 52 °F 52 °F 34 °F (1964)
Degree Days  
Heating Degree Days 0 3  
Month to date heating degree days 135  
Since 1 July heating degree days 1169  
Cooling Degree Days 3 2  
Month to date cooling degree days 54  
Year to date cooling degree days 86  
Growing Degree Days 18 (Base 50)    
Moisture  
Dew Point 50 °F    
Average Humidity 55    
Maximum Humidity 83    
Minimum Humidity 27    
Precipitation  
Precipitation 0.00 in 0.12 in 3.24 in (1996)
Month to date precipitation 4.20  
Year to date precipitation 10.71  
Snow  
Snow 0.00 in 0.00 in 0.00 in ()
Month to date snowfall 0.0  
Since 1 July snowfall 0.0  
Snow Depth -    
Sea Level Pressure  
Sea Level Pressure 29.99 in    
Wind  
Wind Speed 3 mph (SSW)    
Max Wind Speed 9 mph    
Max Gust Speed -    
Visibility 10 miles    
Events      
T = Trace of Precipitation, MM = Missing Value Source: NWS Daily Summary

Daily Weather History Graph

Daily Weather History Graph

Search for Another Location

Airport:

Trip Planner

Search our weather history database for the weather conditions in past years. The results will help you decide how hot, cold, wet, or windy it might be!

Date:

Astronomy

Mar. 30, 2005 Rise Set
Actual Time 6:20 AM EST 6:46 PM EST
Civil Twilight 5:56 AM EST 7:10 PM EST
Nautical Twilight 5:28 AM EST 7:38 PM EST
Astronomical Twilight 5:00 AM EST 8:07 PM EST
Moon No Moon Rise 9:16 AM EST (3/30)
Length of Visible Light 13h 13m
Length of Day
12h 25m
Waning Gibbous, 75% of the Moon is Illuminated
Mar 30
Waning Gibbous
Apr 1
Last Quarter
Apr 8
New
Apr 16
First Quarter
Apr 24
Full

Hourly Weather History & Observations

Time (EST) Temp. Dew Point Humidity Pressure Visibility Wind Dir Wind Speed Gust Speed Precip Events Conditions
12:53 AM 60.1 °F 51.1 °F 72% 29.96 in 10.0 mi WSW 4.6 mph - N/A   Clear
1:53 AM 57.9 °F 50.0 °F 75% 29.95 in 10.0 mi Calm Calm - N/A   Clear
2:53 AM 55.0 °F 48.9 °F 80% 29.94 in 10.0 mi Calm Calm - N/A   Clear
3:53 AM 54.0 °F 48.0 °F 80% 29.94 in 10.0 mi West 3.5 mph - N/A   Clear
4:53 AM 52.0 °F 46.9 °F 83% 29.96 in 10.0 mi Calm Calm - N/A   Clear
5:53 AM 52.0 °F 46.0 °F 80% 29.98 in 10.0 mi Calm Calm - N/A   Clear
6:53 AM 52.0 °F 46.0 °F 80% 30.00 in 10.0 mi Calm Calm - N/A   Clear
7:53 AM 62.1 °F 54.0 °F 75% 30.02 in 10.0 mi Calm Calm - N/A   Clear
8:53 AM 68.0 °F 55.0 °F 63% 30.03 in 10.0 mi Calm Calm - N/A   Clear
9:53 AM 73.0 °F 51.1 °F 46% 30.04 in 10.0 mi North 5.8 mph - N/A   Clear
10:53 AM 75.0 °F 50.0 °F 41% 30.04 in 10.0 mi Variable 5.8 mph - N/A   Clear
11:53 AM 79.0 °F 48.0 °F 34% 30.03 in 10.0 mi SW 6.9 mph - N/A   Clear
12:53 PM 81.0 °F 46.9 °F 30% 30.00 in 10.0 mi SSW 5.8 mph - N/A   Clear
1:53 PM 84.0 °F 50.0 °F 31% 29.99 in 10.0 mi SW 9.2 mph - N/A   Clear
2:53 PM 84.0 °F 46.9 °F 27% 29.96 in 10.0 mi South 9.2 mph - N/A   Clear
3:53 PM 84.9 °F 48.0 °F 28% 29.95 in 10.0 mi SSW 5.8 mph - N/A   Clear
4:53 PM 84.0 °F 46.9 °F 27% 29.95 in 10.0 mi South 6.9 mph - N/A   Clear
5:53 PM 81.0 °F 52.0 °F 36% 29.97 in 10.0 mi SSW 9.2 mph - N/A   Clear
6:53 PM 75.9 °F 51.1 °F 42% 29.98 in 10.0 mi SW 5.8 mph - N/A   Clear
7:53 PM 72.0 °F 48.9 °F 44% 29.99 in 10.0 mi Calm Calm - N/A   Clear
8:53 PM 68.0 °F 54.0 °F 61% 30.01 in 10.0 mi Calm Calm - N/A   Clear
9:53 PM 66.9 °F 54.0 °F 63% 30.01 in 10.0 mi Calm Calm - N/A   Clear
10:53 PM 66.0 °F 51.1 °F 59% 30.01 in 10.0 mi ESE 3.5 mph - N/A   Clear